Regional Weather Roundup
Issued by NWS Sterling, VA

Home | Current Version | Previous Version | Text Only | Print | Product List | Glossary Off
Versions: 1 2 3 4 5 6 7 8 9 10 11 12 13 14 15 16 17 18 19 20 21 22 23 24 25 26 27

000
ASUS41 KLWX 251210
RWRLWX

REGIONAL WEATHER ROUNDUP
NATIONAL WEATHER SERVICE BALTIMORE MD/WASHINGTON DC
800 AM EDT MON JUL 25 2016

Note: "FAIR" indicates few or no clouds below 12,000 feet
with no significant weather and/or obstructions to visibility.
 TC=TEMPERATURE CELSIUS

 * =Non NWS site. Station does not report precipitation (e.g. rain,
    snow, etc.), thunder, or fog.

DCZ001-MDZ009-015-VAZ040>042-051-053>054-251300-
WASHINGTON METRO

CITY           SKY/WX    TMP DP  RH WIND       PRES   REMARKS
WASHINGTON NAT PTSUNNY   85  76  74 SW3       29.97S HX  94
DULLES         PTSUNNY   81  73  76 CALM      29.98S
ANDREWS AFB    MOSUNNY   84  77  79 SW6       29.97S HX  94
FT BELVOIR     FAIR      84  74  71 CALM      29.97S HX  91
QUANTICO       PTSUNNY   83  75  77 SW5       29.98S HX  90
COLLEGE PARK*  FAIR      79  73  83 CALM      29.96S
LEESBURG*      FAIR      81  75  83 CALM      30.00R
MANASSAS*      SUNNY     81  79  94 S3        29.98S
GAITHERSBURG*  SUNNY     79  72  78 W3        30.02S

$$

MDZ006>007-011-014-251300-
BALTIMORE METRO

CITY           SKY/WX    TMP DP  RH WIND       PRES   REMARKS
BWI AIRPORT    CLOUDY    81  75  82 SW5       29.95F
MD SCIENCE CTR   N/A     84  74  71 MISG      29.95F HX  91
MARTIN STATE   PTSUNNY   81  81 100 CALM      29.97S HX  91
ANNAPOLIS      CLOUDY    83  77  82 VRB5      29.95F HX  92
FORT MEADE*    CLOUDY    75  73  94 CALM      29.98F

$$

MDZ012-015-019>023-251300-
MARYLAND EASTERN SHORE

CITY           SKY/WX    TMP DP  RH WIND       PRES   REMARKS
OCEAN CITY     SUNNY     84  77  79 SW9       29.96F HX  94
SALISBURY      SUNNY     83  76  79 SW9       29.96F HX  91
BAY BRIDGE AP* CLOUDY    81  77  89 W3        29.95F
CAMBRIDGE*     MOSUNNY   81  77  89 SW3       29.96S
EASTON*        MOSUNNY   84  82  94 SW6       29.99F HX 101

$$

MDZ017>025-251300-
SOUTHERN MARYLAND

CITY           SKY/WX    TMP DP  RH WIND       PRES   REMARKS
PATUXENT RIVER PTSUNNY   84  73  69 SW13      29.97S HX  90
ST INIGOES     MOSUNNY   83  75  77 SW7       29.98R HX  90
LEONARDTOWN*   PTSUNNY   81  73  78 SW7       30.00R

$$

MDZ003>005-251300-
NORTH CENTRAL MARYLAND

CITY           SKY/WX    TMP DP  RH WIND       PRES   REMARKS
FREDERICK*     SUNNY     77  77 100 CALM      30.00S
HAGERSTOWN APT SUNNY     78  72  81 SE5       29.99S

$$

MDZ501>502-251300-
WESTERN MARYLAND

CITY           SKY/WX    TMP DP  RH WIND       PRES   REMARKS
OAKLAND*       CLOUDY    72  68  88 SW7       30.13F
CUMBERLAND*    CLOUDY    77  72  83 CALM      30.05S

$$

VAZ025>031-251300-
SHENANDOAH VALLEY

CITY           SKY/WX    TMP DP  RH WIND       PRES   REMARKS
WINCHESTER*    FAIR      79  72  78 CALM      30.00S
FRONT ROYAL*   FAIR      75  72  88 S5        30.00S
LURAY*         FAIR      73  73 100 CALM      30.03S
NEW MARKET*    FAIR     N/A N/A N/A S3        30.02F
STAUNTON*      FAIR      73  71  92 CALM      30.07S
WAYNESBORO*    FAIR      74  70  86 CALM      30.07S

$$

WVZ021-048>050-054>055-251300-
EASTERN WEST VIRGINIA PANHANDLE

CITY           SKY/WX    TMP DP  RH WIND       PRES   REMARKS
MARTINSBURG    FAIR      75  71  87 S3        29.98F
PETERSBURG*    FAIR      75  72  89 CALM      30.03S

$$

VAZ036>039-050-251300-
CENTRAL FOOTHILLS

CITY           SKY/WX    TMP DP  RH WIND       PRES   REMARKS
CHARLOTTESVILL FAIR      81  74  79 S6        30.00S
CULPEPER*      FAIR      80  77  90 CALM      30.00S
ORANGE*          N/A     79  77  94 S6        30.01S
GORDONSVILLE*  FAIR      77  74  92 CALM      30.00R
WARRENTON*     FAIR      80  72  75 CALM      29.99S

$$

VAZ055>057-251300-
NORTH AND CENTRAL PIEDMONT

CITY           SKY/WX    TMP DP  RH WIND       PRES   REMARKS
FREDERICKSBRG* FAIR      80  75  87 CALM      29.98S
STAFFORD*      FAIR      79  75  87 CALM      30.02S

$$

NCZ024-NYZ072-PAZ021-071-VAZ022-071-251300-
OTHER REGIONAL OBSERVATIONS

CITY           SKY/WX    TMP DP  RH WIND       PRES   REMARKS
NEW YORK CITY  CLOUDY    80  69  69 W6        29.97F
PHILADELPHIA   CLOUDY    76  74  93 S5        29.94F
PITTSBURGH     CLOUDY    76  71  85 SW5       29.99S
ROANOKE        FAIR      75  70  84 W5        30.09R
RICHMOND       FAIR      79  74  84 SW6       30.01R
RALEIGH        MOSUNNY   80  75  84 SW12      30.06R

$$

ANZ530>537-251300-
MARINE OBSERVATIONS

STATION/POSITION TIME  TEMP    WIND        PRES
                       AIR SEA DIR/SP/G
                 (UTC) (F)     (DEG/KT/KT) (MB)
THOMAS PT LIGHT  1200   80 83  240/  5/  6 1015.6F
BALT KEY BRIDGE  1148   81     220/  4/  5 1014.1F
COVE POINT       1148   83     260/ 14/ 19 1015.2S
LEWISETTA        1148   82 87  250/ 10/ 13 1014.9R
SOLOMONS ISLAND  1148   83 85  250/  6/ 10   N/A
PINEY POINT      1148          270/  4/  5   N/A

$$





USA.gov is the U.S. government's official web portal to all federal, state and local government web resources and services.